OBJECT S, 51840

Orbit data source: Space-Track

You're viewing an Uncataloged Satellite

Recently launched and/or uncataloged satellites may have evolving metadata. Metadata may include but not limited to: Owner, Maufacturer, Bus, Motor, and Mission.

OBJECT S, 51840 is a satellite owned by Changguang WJ (CN) in SSO that was launched on Sun, 27 Feb 2022 UTC via a CHANG ZHENG 8 launch vehicle from the Wenchang Satellite Launch Center (WSC). Unknown objects in Earth's orbit typically refer to objects detected orbiting the Earth but have not yet been identified or cataloged. These objects could be anything from previously untracked satellites, spent rocket stages, debris from satellite collisions, or even natural meteoroids temporarily captured by Earth's gravity.

Loading next visibility...
Identifier
51840, 2022-019S
Orbit
SSO
Country
Flag of CNCN / PRC
Related business
Manufacturer
Changguang WJ
Mission
Operational Commercial Imaging
Bus & Motor
JL-1, Unknown motor
Mass
43 kg wet, 43 kg dry
Launch date (UTC)
2022-02-27 (4 years ago)
Launch vehicle
CHANG ZHENG 8
Launch site
Wenchang Satellite Launch Center (WSC)
Object type
Unknown
Shape & HBR
Box + 2 Pan, 0.8 m
Radar Cross Section
2.000 m², Medium (>0.1 m² and < 1m²)

Expand to show TLE details & history
Last TLE update: 19 hours ago

TLE from 19 hours ago
0 OBJECT S
1 51840U 22019S   25348.96576339  .00047448  00000-0  62626-3 0  9994
2 51840  97.3824  73.0882 0000841 349.3343  10.7895 15.58251166211221
Epoch: 2025-12-14T23:10Z
TLE epoch observation values (Epoch: 2025-12-14T23:10:41.956Z)
Latitude
-0.00004°
Longitude
1.54228°
Altitude
395.302 km
Speed
7.673 km/s
True Right ascension
04h 52m 21s
True Declination
0° 00' 00"
Sunlit
Object was in full shadow at epoch
Visualization orbit readout
Latitude
Unknown
Longitude
Unknown
Altitude
Unknown
Speed
Unknown
Apparent Right ascension
Unknown
Apparent Declination
Unknown
Sunlit
N/A
Visualization observer readout
Local Sidereal Time
17:10:08
Azimuth
Unknown
Elevation
Unknown
Doppler factor
Unknown
Orbital elements
Apogee altitude
390.202 km
Perigee altitude
389.063 km
Semi-major axis
6,767.769 km
Eccentricity
0.00008
Inclination
97.3824°
RAAN
73.0882°
Arg. of periapsis
349.3343°
True anomaly
10.7913°
Mean anomaly
10.7895°
Eccentric anomaly
10.7904°
Mean motion
3.8983 °/min
Orbital period
92.35 mins
BSTAR
0.00062626
Loading maneuver chart data...
Computing Atmospheric mass density...
Loading historical data...
Loading historical data...
Loading historical data...
Loading historical data...
Loading historical data...
Loading historical data...
Loading historical data...

Documentation

Showing up to 5 results
|